[[{"header":{"parameterUnit":"m.s-1","parameterCategory":1,"la1":30.2992,"la2":30.254,"lo1":-89.0895,"lo2":-89.0443,"dy":0.0025,"dx":0.0025,"nx":19,"ny":19,"refTime":"2026-04-15T09:00:00:Z","depth":0,"parameterNumber":2,"parameterNumberName":"U-component_of_WINDS"},"data":[0,0,0,0.8124,0.8124,0.8116,0.8116,0.8114,0.8114,0,0,0,0,0,0,0,0,0,0,0,0.8134,0.8134,0.8124,0.8124,0.8116,0.8116,0.8114,0.8114,0,0,0,0,0,0,0,0,0,0,0,0.8133,0.8134,0.8134,0.8124,0.8116,0.8116,0.8114,0.8117,0,0,0,0,0,0,0,0,0,0,0.8124,0.8139,0.8134,0.8134,0.8124,0.8116,0.8116,0.8117,0.8117,0.8122,0,0.813,0,0.8122,0.8115,0.8115,0,0,0,0.8119,0.8139,0.8131,0.8134,0.8124,0.8116,0.8118,0.8117,0.8117,0.8122,0.813,0.813,0.8122,0.8115,0.8115,0.8165,0.8166,0,0,0.812,0.8136,0.8131,0.8131,0.8134,0.8118,0.8118,0.8117,0.8126,0.813,0.8129,0.8122,0.8115,0.8115,0.8165,0.8165,0,0,0,0.8124,0.8136,0.8127,0.8131,0.8129,0.8118,0.8118,0.8126,0.8121,0.8129,0.8122,0.8115,0.8115,0.8164,0.8165,0.8203,0,0,0,0.8124,0.8139,0.8128,0.8138,0.813,0.8128,0.8127,0.8122,0.8121,0.8122,0.8115,0.8115,0.8164,0.8165,0.8201,0.8219,0,0,0,0.8132,0.814,0.8141,0.8139,0.8136,0.8127,0.8123,0.8121,0.8117,0.8115,0.8115,0.8163,0.8165,0.8199,0.8215,0.8235,0,0,0,0.8144,0.8176,0.8142,0.8174,0.8136,0.8152,0.8123,0.8134,0.8137,0.8115,0.8164,0.8165,0.8199,0.8213,0.8233,0.8254,0.8265,0,0,0.8193,0.8182,0.82,0.8169,0.8195,0.8152,0.8183,0.817,0.8156,0.8163,0.8164,0.8202,0.8215,0.8235,0.8321,0.8329,0,0,0,0.822,0.8233,0.8237,0.824,0.8232,0.8225,0.8206,0.8202,0.8207,0.8163,0.8215,0.8222,0.8233,0.8242,0.8249,0.8257,0.817,0.817,0.817,0.8312,0.8291,0.8318,0.8296,0.83,0.828,0.828,0.827,0.8249,0.8261,0.8263,0.8318,0.8329,0.8334,0.8342,0.8273,0.8273,0.8274,0.8274,0.838,0.8394,0.8364,0.8379,0.8357,0.8369,0.8351,0.8335,0.8342,0.8315,0.8323,0.8294,0.8344,0.835,0.8276,0.8276,0.8276,0.8275,0.8275,0.8436,0.8439,0.8433,0.8435,0.8439,0.8415,0.8423,0.8403,0.8384,0.8392,0.8391,0.839,0.8385,0.8393,0.8393,0.8394,0.8394,0.8394,0.8394,0.8496,0.8488,0.8498,0.8491,0.8489,0.8485,0.8465,0.8463,0.8455,0.8439,0.8439,0.8415,0.8354,0.8338,0.8397,0.8396,0.8396,0.8396,0.8395,0.857,0.855,0.8565,0.8564,0.8553,0.8558,0.8532,0.8529,0.8524,0.8529,0.8503,0.8461,0.8449,0.8443,0.8429,0.8508,0.8508,0.8508,0.8508,0.8616,0.8608,0.8618,0.8618,0.8615,0.8592,0.8609,0.8593,0.8573,0.8568,0.8554,0.8535,0.853,0.852,0.8513,0.85,0.8595,0.8595,0.8595,0.866,0.865,0.8669,0.865,0.8639,0.8631,0.8645,0.8644,0.8618,0.8598,0.8564,0.856,0.8529,0.8521,0.8499,0.8488,0.8464,0,0]},{"header":{"parameterUnit":"m.s-1","parameterCategory":1,"la1":30.2992,"la2":30.254,"lo1":-89.0895,"lo2":-89.0443,"dy":0.0025,"dx":0.0025,"nx":19,"ny":19,"refTime":"2026-04-15T09:00:00:Z","depth":0,"parameterNumber":3,"parameterNumberName":"V-component_of_WINDS"},"data":[0,0,0,4.1898,4.1901,4.2073,4.2073,4.2281,4.2283,0,0,0,0,0,0,0,0,0,0,0,4.1843,4.1844,4.1897,4.1902,4.2073,4.2074,4.2281,4.2283,0,0,0,0,0,0,0,0,0,0,0,4.1842,4.1844,4.1846,4.1902,4.2073,4.2074,4.228,4.2154,0,0,0,0,0,0,0,0,0,0,4.199,4.1937,4.1844,4.1846,4.1903,4.2072,4.2074,4.2149,4.2162,4.2199,0,4.2234,0,4.2262,4.2296,4.2297,0,0,0,4.1904,4.1925,4.1975,4.1846,4.1905,4.2072,4.1996,4.2156,4.2172,4.2218,4.2237,4.2245,4.2265,4.2298,4.2299,4.2511,4.2512,0,0,4.1894,4.1871,4.1964,4.1985,4.1961,4.1991,4.2001,4.2166,4.2185,4.2238,4.225,4.2269,4.2299,4.2301,4.251,4.2511,0,0,0,4.1866,4.1865,4.1911,4.1976,4.2008,4.1995,4.2008,4.2178,4.2194,4.2253,4.2271,4.23,4.2303,4.2509,4.2511,4.2532,0,0,0,4.186,4.1848,4.1906,4.1894,4.2005,4.2096,4.2016,4.2183,4.2202,4.227,4.23,4.2305,4.2508,4.251,4.253,4.2546,0,0,0,4.1833,4.1845,4.1869,4.1892,4.1966,4.2094,4.212,4.2188,4.2214,4.2297,4.2305,4.2508,4.251,4.2527,4.2542,4.2594,0,0,0,4.1797,4.1886,4.1869,4.1974,4.1964,4.2107,4.2119,4.2226,4.23,4.2301,4.2509,4.251,4.2527,4.254,4.2591,4.2633,4.2649,0,0,4.1896,4.1897,4.1961,4.195,4.209,4.2082,4.2224,4.2313,4.2341,4.2452,4.2457,4.2531,4.2542,4.2593,4.2746,4.2758,0,0,0,4.1984,4.203,4.2072,4.2142,4.2213,4.2274,4.2344,4.2376,4.2471,4.2395,4.2565,4.2572,4.2603,4.2624,4.2634,4.2661,4.252,4.2519,4.2519,4.2091,4.2123,4.223,4.2281,4.2348,4.2419,4.2475,4.253,4.2542,4.2581,4.2614,4.2703,4.2727,4.2735,4.2762,4.264,4.264,4.264,4.264,4.2238,4.2306,4.2319,4.2427,4.2458,4.2549,4.2618,4.2623,4.2709,4.2682,4.271,4.2677,4.2747,4.2773,4.2642,4.2642,4.2641,4.2641,4.2641,4.2311,4.2349,4.2387,4.249,4.2566,4.2613,4.2695,4.2721,4.2745,4.2774,4.281,4.2809,4.2811,4.2789,4.279,4.279,4.279,4.279,4.2791,4.2371,4.2413,4.2481,4.2562,4.2609,4.2673,4.2742,4.2788,4.2845,4.2857,4.2857,4.2863,4.2749,4.2719,4.2796,4.2795,4.2794,4.2794,4.2793,4.2506,4.2479,4.2583,4.263,4.2725,4.2796,4.2828,4.2918,4.296,4.2998,4.2998,4.291,4.2912,4.2904,4.2879,4.2993,4.2993,4.2993,4.2993,4.2567,4.257,4.2681,4.2754,4.2828,4.2866,4.2978,4.3031,4.3081,4.3108,4.3095,4.3065,4.3055,4.3063,4.3051,4.3028,4.3177,4.3178,4.3178,4.2651,4.2662,4.2755,4.2805,4.2881,4.2944,4.3049,4.3129,4.318,4.3186,4.3129,4.3121,4.3072,4.3055,4.3059,4.304,4.2999,0,0]}]]